Flag for Chile Weather past 2 weeks in Santiago, Chile

Now
59 °F

Partly sunny.


Feels Like: 59 °F
Forecast: N/A
Wind: 5 mph from Southwest

Location: Pudahuel

Current Time: Sep 23, 2014 at 6:04:25 PM

Latest Report: Sep 23, 2014 at 5:00 PM


Visibility: N/A

Pressure: 30.24 "Hg

Humidity: 48%

Dew point: 39 °F

Location of SantiagoLocation

Historic Weather in Santiago — Graph

°F

Santiago temperature yesterday

Maximum temperature yesterday: 54 °F (at 12:00 AM)
Minimum temperature yesterday: 48 °F (at 7:00 AM)
Average temperature yesterday: 52 °F

Past Weeks' High & Low Weather Summary

 TemperatureHumidityPressure
High82 °F (Sep 15, 5:00 PM)100% (Sep 14, 9:00 AM)30.30 "Hg (Sep 14, 9:00 AM)
Low36 °F (Sep 11, 5:00 AM)21% (Sep 15, 6:00 PM)29.86 "Hg (Sep 11, 7:00 PM)
Average53 °F72%30.07 "Hg
* Reported Sep 8 5:00 PM — Sep 23 5:00 PM, Santiago, Weather by CustomWeather, © 2014

Note: Actual official high and low records may vary slightly from our data, if they occured in-between our weather recording intervals... More about our weather records

Advertising

Santiago weather history for previous 24 hours

 ConditionsComfort  
Time TempWeatherWind HumidityBarometerVisibility
5:00 PM
Sep 23
59 °FPartly sunny.5 mph48%30.24 "HgN/A
4:00 PM59 °FPartly sunny.6 mph45%30.24 "HgN/A
3:00 PM57 °FPartly sunny.7 mph55%30.27 "HgN/A
2:00 PM55 °FPartly sunny.5 mph55%30.27 "HgN/A
1:00 PM55 °FPartly sunny.2 mph59%30.27 "HgN/A
12:00 PM54 °FPartly sunny.2 mph58%30.27 "HgN/A
11:00 AM50 °FBroken clouds.2 mph71%30.27 "Hg5 mi
10:00 AM46 °FPartly sunny.2 mph82%30.24 "HgN/A
9:00 AM45 °FBroken clouds.2 mph87%30.24 "HgN/A
8:00 AM43 °FBroken clouds.No wind87%30.21 "HgN/A
7:00 AM43 °FBroken clouds.1 mph87%30.18 "HgN/A
6:00 AM43 °FPassing clouds.No wind87%30.18 "HgN/A
5:00 AM43 °FPassing clouds.1 mph81%30.15 "HgN/A
4:00 AM45 °FPassing clouds.3 mph76%30.15 "HgN/A
3:00 AM46 °FPassing clouds.6 mph76%30.18 "HgN/A
2:00 AM46 °FPassing clouds.6 mph76%30.18 "HgN/A
1:00 AM46 °FPassing clouds.5 mph76%30.15 "HgN/A
12:00 AM48 °FPassing clouds.3 mph71%30.15 "HgN/A
11:00 PM
Sep 22
50 °FPassing clouds.6 mph67%30.15 "HgN/A
10:00 PM52 °FPassing clouds.7 mph62%30.15 "HgN/A
9:00 PM52 °FPassing clouds.8 mph67%30.15 "HgN/A
8:00 PM54 °FOvercast.8 mph63%30.15 "HgN/A
7:00 PM54 °FMostly cloudy.9 mph63%30.15 "HgN/A
6:00 PM54 °FOvercast.8 mph63%30.15 "HgN/A
Weather by CustomWeather, © 2014

See weather overviewHow to use our weather pages